Zurück zum Katalog

STARLINK-3339

AktivKommunikationVLEO
NORAD 50820·PAYLOAD·🇺🇸 United States

Gestartet Jan 6, 2022 von Cape Canaveral Space Force Station

Loading…

Nächste Überflüge (nächste 24 Stunden)

TLE

AktuellSource: CelesTrak SupGP

Epoche: Sep 14, 2026, 21:31 UTC

1 50820C 22001T   26257.89701389  .00015975  00000+0  51370-3 0  2579
2 50820  53.1591  29.9843 0001143  78.4686 101.9216 15.31694061    11

Verfolge STARLINK-3339 in Echtzeit mit AllMySat

Download on the App Store